Regional Weather Roundup
Issued by NWS Mobile, AL

Home | Current Version | Previous Version | Text Only | Print | Product List | Glossary On
Versions: 1 2 3 4 5 6 7 8 9 10 11 12 13 14 15 16 17 18 19 20 21 22 23 24 25 26 27 28 29 30 31 32 33 34 35 36 37 38 39 40 41 42 43 44 45 46 47 48 49 50
000
ASUS44 KMOB 290416
RWRMOB
REGIONAL WEATHER ROUNDUP
NATIONAL WEATHER SERVICE MOBILE AL
1100 PM CDT THU MAY 28 2015

ALZ061>064-290500-
COASTAL ALABAMA


CITY           SKY/WX    TMP DP  RH WIND       PRES   REMARKS
MOBILE REG APT PTCLDY    72  70  93 NE3       30.13R
BROOKLEY FIELD PTCLDY    77  71  82 E9        30.13S
GULF SHORES    PTCLDY    74  71  88 SE6       30.11F

$$

ALZ051>060-290500-
INTERIOR SOUTHWEST AND SOUTH CENTRAL ALABAMA


CITY           SKY/WX    TMP DP  RH WIND       PRES   REMARKS
ANDALUSIA/OPP  MOCLDY    73  68  84 SE3       30.15S
EVERGREEN      MOCLDY    70  68  93 E3        30.15F
FLORALA        PTCLDY    70  68  94 NE3       30.16F
GREENVILLE     MOCLDY    70  67  90 MISG      30.13F

$$

FLZ001>006-290500-
WESTERN FLORIDA PANHANDLE


CITY           SKY/WX    TMP DP  RH WIND       PRES   REMARKS
CRESTVIEW      PTCLDY    70  69  97 CALM      30.16S
DESTIN         PTCLDY    76  74  93 CALM      30.13S
DUKE FIELD     MOCLDY    70  69  96 NE1       30.13S
MARY ESTHER    CLOUDY    74  70  88 NE2       30.12S
MILTON         MOCLDY    73  70  90 E7        30.14S
PENSACOLA      PTCLDY    73  71  93 E3        30.13S
NAS PENSACOLA  PTCLDY    77  72  84 SE7       30.12S
VALPARAISO     MOCLDY    73  71  93 NE2       30.14S

$$

...MARINE OBSERVATIONS...

STATION/POSITION TIME  SKY/WX   TEMP    WIND        PRES    VSBY
                                AIR SEA DIR/SP/G
                 (UTC)          (F)     (DEG/KT/KT) (MB)    (MI)
PASCAGOULA       0300            78     120/  5/  8 1019.3R
PETIT BOIS ISL   0300            78     110/  8/ 11 1019.8R
E DAUPHIN ISLAND 0400            78     120/ 15/ 17 1019.3F
MIDDLE BAY LIGHT 0300            78     130/  9     1019.0R
USCG MOBILE BAY  0300            78 80  120/  6/  7 1018.9R
STATE DOCKS      0300            77 79              1019.7R
MEAHER PARK      0400            75      90/  5     1019.6S
FORT MORGAN      0300            77     120/  8/  9 1019.3R
12 S ORANGE BCH  0350            78 80  110/ 12/ 14 1019.0S
WVE H/P(F/S)=  3/ 8

PENSACOLA BAY    0300            78 82  130/  2/  4 1020.4R
64 S DAUPHIN ISL 0350            78 80  100/ 10/ 10 1019.7R
WVE H/P(F/S)=  2/ 7

67 S FORT MORGAN 0330            78      90/ 10     1019.3
115 SE PENSACOLA 0350            79 81   80/  6/  8 1020.2R
WVE H/P(F/S)=  3/ 6

MID GULF/42001   0350            81 82   60/ 14/ 16 1017.8R
WVE H/P(F/S)=  3/ 7

EAST GULF/42003  0350            80 82   80/ 10/ 14 1018.2R
WVE H/P(F/S)=  3/ 6


$$

...NEARBY LOCATIONS

CITY           SKY/WX    TMP DP  RH WIND       PRES   REMARKS
GULFPORT       CLEAR     79  71  76 SE9       30.09S
BILOXI         CLEAR     79  71  76 SE6       30.09F
PASCAGOULA     PTCLDY    70  69  97 CALM      30.11S
HATTIESBURG    PTCLDY    74  71  91 SE5       30.10F
LAUREL         PTCLDY    73  70  88 SE6       30.11F
MERIDIAN       MOCLDY    72  69  90 S7        30.11F
MERIDIAN NAS   MOCLDY    70  68  93 SE6       30.12F
MONTGOMERY     CLOUDY    71  68  90 NE3       30.15F
MAXWELL AFB    CLOUDY    70  69  96 NE3       30.14F
TROY           CLOUDY    70  67  90 CALM      30.16F
FORT RUCKER    MOCLDY    69  67  93 CALM      30.15F
DALEVILLE      PTCLDY    69  68  98 NE3       30.15F
DOTHAN         MOCLDY    70  68  93 N5        30.19F

$$

...OTHER SURROUNDING LOCATIONS...

CITY           SKY/WX    TMP DP  RH WIND       PRES   REMARKS
BIRMINGHAM     CLOUDY    69  67  93 S3        30.17F
TUSCALOOSA     CLOUDY    72  68  87 E7        30.13F
COLUMBUS GA    CLOUDY    70  66  87 CALM      30.18S
PANAMA CITY    NOT AVBL
TALLAHASSEE    CLEAR     76  71  85 N3        30.15S
BATON ROUGE    CLEAR     78  70  76 SE7       30.04S
NEW ORLEANS    PTCLDY    78  72  81 S9        30.07S
SLIDELL        CLEAR     76  74  93 SE5       30.07F
JACKSON        PTCLDY    75  68  78 E7        30.06F
MCCOMB         CLEAR     75  72  90 SE8       30.07S

$$

...SURROUNDING MARINE OBSERVATIONS...

STATION/POSITION TIME  SKY/WX   TEMP    WIND        PRES    VSBY
                                AIR SEA DIR/SP/G
                 (UTC)          (F)     (DEG/KT/KT) (MB)    (MI)
WAVELAND         0300            79 82  150/ 10/ 12 1019.0R
PASCAGOULA RGN A 0300            79     120/  9/ 11 1018.9R
PASCAGOULA PORT  0300               82                N/A
GRAND ISLE       0300            80 84  150/  6/  9 1018.7R
SOUTHWEST PASS   0400            80     120/ 15/ 16 1018.9F
PILOT STATION E  0300            78 75  120/ 12/ 13 1019.4R
SHELL BEACH      0300            77 82  150/  6/  7 1018.2R
PANAMA CITY      0300            74 82   40/  5/  6 1020.1R
APALACHICOLA     0300            74 81  360/  3/  5 1020.4R
TYNDALL TOWER C  0400            79     360/  9/  9 1019.8F
S APLCHCLA/42036 0350            80 81  360/ 10/ 12 1019.6R
WVE H/P(F/S)=  2/ 5


$$




USA.gov is the U.S. government's official web portal to all federal, state and local government web resources and services.